Regional Weather Roundup
Issued by NWS

Home | Current Version | Previous Version | Graphics & Text | Print | Product List | Glossary Off
Versions: 1 2 3 4 5 6 7 8 9 10 11 12 13 14 15 16 17 18 19 20 21 22 23 24 25 26 27 28 29 30 31 32 33 34 35 36 37 38 39 40 41 42 43 44 45 46 47 48 49 50

000
ASUS43 KDMX 240206
RWRIA

WEATHER ROUNDUP FOR IOWA
NATIONAL WEATHER SERVICE DES MOINES IA
900 PM CDT SUN APR 23 2017

NOTE: "FAIR" INDICATES FEW OR NO CLOUDS BELOW 12,000 FEET WITH NO
SIGNIFICANT WEATHER AND/OR OBSTRUCTIONS TO VISIBILITY.

* - THESE STATIONS ARE NOT NWS STATIONS...THUS NOT UNDER NWS
QUALITY CONTROL.  THEY ALSO DO NOT REPORT WEATHER SUCH
AS PRECIPITATION OR FOG.

IAZ001>003-012>014-020>022-031>034-043>046-240300-
   NORTHWEST IOWA

CITY           SKY/WX    TMP DP  RH WIND       PRES   REMARKS
CARROLL *      PTCLDY    59  32  36 S12       29.92S
CHEROKEE *     PTCLDY    57  32  38 S9        29.87S
DENISON *      CLOUDY    61  30  31 S13       29.92S
LE MARS *      CLOUDY    63  30  29 S13       29.85R
ORANGE CITY *  CLOUDY    59  32  36 S8        29.85S
SHELDON *      CLOUDY    61  30  31 S17       29.83S
SIOUX CITY     CLOUDY    65  27  23 S18       29.85S
SPENCER        CLEAR     56  32  40 MISG      29.87S
STORM LAKE *   CLOUDY    57  30  35 S12       29.90R
$$

IAZ055>058-069>071-079>083-090>094-240300-
   SOUTHWEST IOWA

CITY           SKY/WX    TMP DP  RH WIND       PRES   REMARKS
ATLANTIC *     CLEAR     57  34  41 S8        29.94S
AUDUBON *      PTCLDY    57  34  41 S5        29.94F
CLARINDA *     CLEAR     54  36  50 CALM      29.98S
COUNCIL BLFS * CLEAR     59  32  36 S9        29.92F
CRESTON *      CLEAR     59  34  38 S6        29.99R
HARLAN  *      CLOUDY    61  30  31 S10       29.95F
LAMONI         PTCLDY    61  32  33 S7        29.98S
RED OAK *      CLEAR     57  32  38 S3        29.95S
SHENANDOAH *   CLEAR     57  34  41 S9        29.95S
$$

IAZ047>049-059>061-072>074-084-240300-
   CENTRAL IOWA

CITY           SKY/WX    TMP DP  RH WIND       PRES   REMARKS
AMES           CLOUDY    58  34  40 S9        29.95S
ANKENY *       PTCLDY    61  32  33 S5        29.97S
BOONE *        CLOUDY    59  32  36 S8        29.94S
CHARITON *     PTCLDY    59  36  41 SE6       29.98S
DES MOINES     MOCLDY    61  33  35 S7        29.97S
GRINNELL*      CLOUDY    58  29  33 S7        30.00S
KNOXVILLE *    CLOUDY    61  34  36 S5        29.97S
MARSHALLTOWN   CLOUDY    60  33  36 S7        29.96S
NEWTON *       PTCLDY    55  32  41 S8        29.97S
PELLA *        CLOUDY    60  32  35 SE3       30.00R
PERRY *          N/A     59  28  31 S10       29.94S
$$

IAZ004>006-015-016-023>025-035-036-240300-
   NORTH CENTRAL IOWA

CITY           SKY/WX    TMP DP  RH WIND       PRES   REMARKS
ALGONA *       CLEAR     59  32  36 S15       29.90F
CLARION *      CLOUDY    57  32  38 S12       29.93S
ESTHERVILLE    CLEAR     54  32  43 S12       29.88R
FORT DODGE *   CLOUDY    63  28  27 S10       29.93S
MASON CITY     CLEAR     58  30  34 S10       29.94S
FOREST CITY *    N/A     54  32  43 S9        29.92S
WEBSTER CITY * CLEAR     57  32  38 S10       29.92S
IOWA FALLS *     N/A     57  35  43 S9        29.96S
$$

IAZ007>011-017>019-026>030-037>042-050>054-066-240300-
   NORTHEAST IOWA

CITY           SKY/WX    TMP DP  RH WIND       PRES   REMARKS
CEDAR RAPIDS   CLOUDY    59  34  39 S3        29.98S
CHARLES CITY * CLOUDY    59  32  36 S9        29.95S
DECORAH *      CLOUDY    63  34  34 S7        29.95S
DUBUQUE        PTCLDY    58  35  42 S8        30.00S
MONTICELLO *   PTCLDY    59  34  38 S5        29.99S
WATERLOO       CLOUDY    61  29  29 S9        29.96S
$$

IAZ064-065-067-068-078-240300-
   EAST CENTRAL IOWA

CITY           SKY/WX    TMP DP  RH WIND       PRES   REMARKS
DAVENPORT      CLEAR     58  33  39 SE5       30.01F
IOWA CITY      PTCLDY    60  34  37 CALM      30.00F
MT. PLEASANT * CLEAR     58  32  37 SE6       30.01S
MUSCATINE *    CLEAR     59  32  36 S5        30.00S
QUAD CITIES    CLEAR     55  38  52 SE7       30.01S
$$

IAZ062-063-075>077-085>089-095>099-240300-
   SOUTHEAST IOWA

CITY           SKY/WX    TMP DP  RH WIND       PRES   REMARKS
BURLINGTON     CLOUDY    59  36  42 CALM      30.00F
FAIRFIELD *    PTCLDY    61  32  33 S5        30.00S
FORT MADISON * CLOUDY    59  27  29 CALM      30.02S
KEOKUK *       CLEAR     55  34  44 CALM      30.00F
OSKALOOSA *      N/A     56  32  39 SE7       30.00R
CENTERVILLE *    N/A     59  36  41 CALM      30.01S
OTTUMWA        PTCLDY    57  32  38 SE6       29.99S
WASHINGTON *   PTCLDY    61  30  31 S6        30.01S
$$

ABBREVIATIONS USED IN REMARKS
   TC - TEMPERATURES IN CELSIUS
  WCI - WIND CHILL INDEX
   HX - HEAT INDEX
  VSB - VISIBILITY
$$





USA.gov is the U.S. government's official web portal to all federal, state and local government web resources and services.